Weather History for Thedford, NE

Change the Weather History Date:

Friday, March 1, 2013

  Actual Average (KLBF) Record (KLBF)
Temperature  
Mean Temperature 31 °F 33 °F  
Max Temperature 42 °F 47 °F 77 °F (2008)
Min Temperature 20 °F 19 °F -11 °F (1980)
Degree Days  
Heating Degree Days 34 32  
Month to date heating degree days 32  
Since 1 July heating degree days 5060  
Cooling Degree Days 0 0  
Month to date cooling degree days 0  
Year to date cooling degree days 0  
Moisture  
Dew Point 23 °F    
Average Humidity 75    
Maximum Humidity 88    
Minimum Humidity 43    
Precipitation  
Precipitation 0.00 in 0.02 in 0.44 in (2002)
Month to date precipitation 0.02  
Year to date precipitation 0.86  
Snow  
Snow 0.00 in 0.20 in 7.40 in (2002)
Month to date snowfall 0.2  
Since 1 July snowfall 21.1  
Snow Depth -    
Sea Level Pressure  
Sea Level Pressure 30.24 in    
Wind  
Wind Speed 3 mph (North)    
Max Wind Speed 14 mph    
Max Gust Speed 21 mph    
Visibility 9 miles    
Events Snow    
T = Trace of Precipitation, MM = Missing Value Source: NWS Daily Summary

Daily Weather History Graph

Daily Weather History Graph

Search for Another Location

Airport:

Trip Planner

Search our weather history database for the weather conditions in past years. The results will help you decide how hot, cold, wet, or windy it might be!

Date:

Astronomy

Mar. 01, 2013 Rise Set
Actual Time 7:16 AM CST 6:32 PM CST
Civil Twilight 6:48 AM CST 7:00 PM CST
Nautical Twilight 6:16 AM CST 7:33 PM CST
Astronomical Twilight 5:44 AM CST 8:05 PM CST
Moon 11:13 PM CST (3/1) 8:59 AM CST (3/1)
Length of Visible Light 12h 12m
Length of Day
11h 16m
Waning Gibbous, 83% of the Moon is Illuminated
Mar 1
Waning Gibbous
Mar 4
Last Quarter
Mar 11
New
Mar 19
First Quarter
Mar 27
Full

Hourly Weather History & Observations

Time (CST) Temp. Windchill Dew Point Humidity Pressure Visibility Wind Dir Wind Speed Gust Speed Precip Events Conditions
12:15 AM 25.7 °F - 21.7 °F 85% 30.20 in 10.0 mi Calm Calm - N/A   Overcast
12:35 AM 26.1 °F - 22.1 °F 85% 30.20 in 10.0 mi Calm Calm - N/A   Overcast
12:55 AM 25.7 °F - 21.9 °F 86% 30.21 in 10.0 mi Calm Calm - N/A   Overcast
1:15 AM 24.8 °F - 21.2 °F 86% 30.21 in 10.0 mi Calm Calm - N/A   Overcast
1:35 AM 24.6 °F - 21.0 °F 86% 30.21 in 10.0 mi Calm Calm - N/A   Scattered Clouds
2:15 AM 23.0 °F - 19.2 °F 85% 30.21 in 7.0 mi Calm Calm - N/A   Scattered Clouds
2:35 AM 21.7 °F - 17.6 °F 84% 30.20 in 7.0 mi Calm Calm - N/A   Scattered Clouds
3:15 AM 21.2 °F - 17.6 °F 86% 30.20 in 7.0 mi Calm Calm - N/A   Scattered Clouds
3:35 AM 20.1 °F - 16.3 °F 85% 30.19 in 7.0 mi Calm Calm - N/A   Scattered Clouds
3:55 AM 21.9 °F - 18.5 °F 87% 30.19 in 7.0 mi Calm Calm - N/A   Mostly Cloudy
4:15 AM 21.9 °F - 18.3 °F 86% 30.19 in 7.0 mi Calm Calm - N/A   Scattered Clouds
4:35 AM 20.7 °F - 16.7 °F 85% 30.19 in 7.0 mi Calm Calm - N/A   Scattered Clouds
5:15 AM 20.5 °F - 16.5 °F 85% 30.21 in 7.0 mi Calm Calm - N/A   Scattered Clouds
5:35 AM 20.5 °F - 16.9 °F 86% 30.21 in 7.0 mi Calm Calm - N/A   Scattered Clouds
5:55 AM 20.5 °F 14.0 °F 16.9 °F 86% 30.21 in 7.0 mi WSW 4.6 mph - N/A   Mostly Cloudy
6:15 AM 23.5 °F 17.6 °F 20.1 °F 87% 30.21 in 4.0 mi West 4.6 mph - N/A Snow Light Snow
6:35 AM 24.8 °F - 21.2 °F 86% 30.21 in 5.0 mi Calm Calm - N/A Snow Light Snow
6:55 AM 28.2 °F 24.4 °F 25.0 °F 88% 30.21 in 1.5 mi NW 3.5 mph - N/A Snow Light Snow
7:15 AM 28.8 °F 25.0 °F 25.5 °F 88% 30.21 in 5.0 mi NW 3.5 mph - N/A Snow Light Snow
7:35 AM 29.8 °F 23.9 °F 26.2 °F 86% 30.21 in 10.0 mi NW 5.8 mph - N/A   Overcast
7:55 AM 30.0 °F 25.2 °F 26.1 °F 85% 30.22 in 7.0 mi NW 4.6 mph - N/A   Overcast
8:15 AM 30.6 °F 23.1 °F 26.6 °F 85% 30.23 in 10.0 mi NW 8.1 mph - N/A   Overcast
8:35 AM 30.9 °F 24.3 °F 26.2 °F 83% 30.24 in 10.0 mi NW 6.9 mph - N/A   Overcast
9:15 AM 32.0 °F 24.2 °F 26.2 °F 79% 30.26 in 10.0 mi North 9.2 mph - N/A   Overcast
9:35 AM 32.2 °F 24.4 °F 26.8 °F 80% 30.26 in 10.0 mi NNW 9.2 mph - N/A   Overcast
9:55 AM 32.9 °F 24.7 °F 26.8 °F 78% 30.26 in 10.0 mi North 10.4 mph 16.1 mph N/A   Overcast
10:15 AM 32.7 °F 24.5 °F 27.0 °F 79% 30.26 in 10.0 mi NNW 10.4 mph - N/A   Overcast
10:35 AM 33.3 °F 25.7 °F 27.3 °F 79% 30.27 in 10.0 mi North 9.2 mph - N/A   Mostly Cloudy
10:55 AM 35.2 °F 28.1 °F 28.0 °F 75% 30.27 in 10.0 mi NNW 9.2 mph - N/A   Scattered Clouds
11:15 AM 34.7 °F 27.5 °F 26.6 °F 72% 30.27 in 10.0 mi North 9.2 mph - N/A   Mostly Cloudy
11:35 AM 36.3 °F 29.5 °F 27.5 °F 70% 30.27 in 10.0 mi NNW 9.2 mph - N/A   Overcast
12:15 PM 37.8 °F 29.8 °F 26.8 °F 65% 30.27 in 10.0 mi North 12.7 mph 17.3 mph N/A   Overcast
12:35 PM 38.5 °F 33.4 °F 26.4 °F 62% 30.27 in 10.0 mi North 6.9 mph 16.1 mph N/A   Mostly Cloudy
1:15 PM 39.6 °F 33.0 °F 25.2 °F 56% 30.26 in 10.0 mi NNW 10.4 mph - N/A   Mostly Cloudy
1:35 PM 39.2 °F 31.6 °F 23.7 °F 54% 30.25 in 10.0 mi North 12.7 mph 19.6 mph N/A   Mostly Cloudy
1:55 PM 40.8 °F 33.3 °F 23.7 °F 51% 30.25 in 10.0 mi North 13.8 mph 20.7 mph N/A   Mostly Cloudy
2:15 PM 40.1 °F 36.1 °F 23.9 °F 52% 30.24 in 10.0 mi North 5.8 mph - N/A   Mostly Cloudy
2:35 PM 39.2 °F 33.6 °F 23.5 °F 53% 30.23 in 10.0 mi North 8.1 mph - N/A   Mostly Cloudy
2:55 PM 42.1 °F 37.1 °F 23.0 °F 47% 30.23 in 10.0 mi NNE 8.1 mph 17.3 mph N/A   Mostly Cloudy
3:15 PM 41.7 °F 35.6 °F 23.9 °F 49% 30.23 in 10.0 mi NNE 10.4 mph - N/A   Mostly Cloudy
3:35 PM 40.8 °F 36.9 °F 24.1 °F 51% 30.23 in 10.0 mi NNW 5.8 mph - N/A   Scattered Clouds
3:55 PM 39.0 °F 32.3 °F 23.2 °F 53% 30.23 in 10.0 mi NNE 10.4 mph 16.1 mph N/A   Mostly Cloudy
4:15 PM 39.9 °F 35.1 °F 22.5 °F 50% 30.23 in 10.0 mi North 6.9 mph - N/A   Scattered Clouds
4:35 PM 41.9 °F 35.4 °F 21.0 °F 43% 30.23 in 10.0 mi NNW 11.5 mph - N/A   Scattered Clouds
4:55 PM 40.1 °F 34.7 °F 23.9 °F 52% 30.24 in 10.0 mi NNE 8.1 mph - N/A   Scattered Clouds
5:15 PM 39.4 °F 37.2 °F 23.0 °F 52% 30.25 in 10.0 mi North 3.5 mph - N/A   Clear
5:35 PM 39.2 °F 33.6 °F 24.4 °F 56% 30.26 in 10.0 mi ENE 8.1 mph - N/A   Clear
5:55 PM 36.9 °F 33.1 °F 25.7 °F 64% 30.26 in 10.0 mi East 4.6 mph - N/A   Clear
6:15 PM 34.5 °F 30.4 °F 25.2 °F 69% 30.26 in 10.0 mi East 4.6 mph - N/A   Clear
6:35 PM 32.9 °F 28.5 °F 24.8 °F 72% 30.26 in 10.0 mi SE 4.6 mph - N/A   Clear
6:55 PM 31.1 °F - 24.3 °F 76% 30.26 in 10.0 mi Calm Calm - N/A   Clear
7:15 PM 31.1 °F 26.4 °F 24.4 °F 76% 30.26 in 10.0 mi SE 4.6 mph - N/A   Clear
7:35 PM 29.3 °F 25.6 °F 23.7 °F 80% 30.27 in 10.0 mi SE 3.5 mph - N/A   Clear
7:55 PM 28.9 °F - 23.7 °F 81% 30.28 in 10.0 mi Calm Calm - N/A   Clear
8:15 PM 27.0 °F 23.0 °F 22.6 °F 84% 30.28 in 10.0 mi East 3.5 mph - N/A   Clear
8:35 PM 26.8 °F - 22.5 °F 84% 30.27 in 10.0 mi Calm Calm - N/A   Clear
8:55 PM 26.2 °F - 22.3 °F 85% 30.27 in 10.0 mi Calm Calm - N/A   Clear
9:15 PM 25.5 °F - 21.6 °F 85% 30.28 in 10.0 mi Calm Calm - N/A   Clear
9:35 PM 25.0 °F - 21.2 °F 86% 30.28 in 10.0 mi Calm Calm - N/A   Clear
9:55 PM 25.3 °F - 21.6 °F 86% 30.28 in 10.0 mi Calm Calm - N/A   Clear
10:15 PM 25.2 °F - 21.0 °F 84% 30.28 in 10.0 mi Calm Calm - N/A   Clear
10:35 PM 23.7 °F - 20.3 °F 87% 30.28 in 7.0 mi Calm Calm - N/A   Clear
10:55 PM 23.9 °F - 20.5 °F 87% 30.27 in 10.0 mi Calm Calm - N/A   Clear
11:15 PM 23.7 °F - 20.1 °F 86% 30.26 in 7.0 mi Calm Calm - N/A   Clear
11:35 PM 25.5 °F - 21.6 °F 85% 30.26 in 10.0 mi Calm Calm - N/A   Clear
11:55 PM 24.1 °F - 19.9 °F 84% 30.26 in 10.0 mi Calm Calm - N/A   Clear